Year,Month,Day,Hour,Minute,Value (Times are PST for temperature in C)
2018,02,04,00,00,9.30
2018,02,04,00,01,9.30
2018,02,04,00,02,9.30
2018,02,04,00,03,9.30
2018,02,04,00,04,9.30
2018,02,04,00,05,9.30
2018,02,04,00,06,9.30
2018,02,04,00,07,9.30
2018,02,04,00,08,9.30
2018,02,04,00,09,9.20
2018,02,04,00,10,9.20
2018,02,04,00,11,9.20
2018,02,04,00,12,9.20
2018,02,04,00,13,9.20
2018,02,04,00,14,9.20
2018,02,04,00,15,9.20
2018,02,04,00,16,9.20
2018,02,04,00,17,9.20
2018,02,04,00,18,9.30
2018,02,04,00,19,9.30
2018,02,04,00,20,9.30
2018,02,04,00,21,9.30
2018,02,04,00,22,9.30
2018,02,04,00,23,9.30
2018,02,04,00,24,9.30
2018,02,04,00,25,9.30
2018,02,04,00,26,9.30
2018,02,04,00,27,9.30
2018,02,04,00,28,9.30
2018,02,04,00,29,9.30
2018,02,04,00,30,9.20
2018,02,04,00,31,9.20
2018,02,04,00,32,9.20
2018,02,04,00,33,9.20
2018,02,04,00,34,9.20
2018,02,04,00,35,9.20
2018,02,04,00,36,9.20
2018,02,04,00,37,9.20
2018,02,04,00,38,9.20
2018,02,04,00,39,9.20
2018,02,04,00,40,9.20
2018,02,04,00,41,9.20
2018,02,04,00,42,9.20
2018,02,04,00,43,9.30
2018,02,04,00,44,9.30
2018,02,04,00,45,9.30
2018,02,04,00,46,9.30
2018,02,04,00,47,9.30
2018,02,04,00,48,9.30
2018,02,04,00,49,9.30
2018,02,04,00,50,9.30
2018,02,04,00,51,9.30
2018,02,04,00,52,9.30
2018,02,04,00,53,9.30
2018,02,04,00,54,9.30
2018,02,04,00,55,9.30
2018,02,04,00,56,9.30
2018,02,04,00,57,9.30
2018,02,04,00,58,9.30
2018,02,04,00,59,9.30
2018,02,04,01,00,9.30
2018,02,04,01,01,9.30
2018,02,04,01,02,9.30
2018,02,04,01,03,9.30
2018,02,04,01,04,9.30
2018,02,04,01,05,9.30
2018,02,04,01,06,9.40
2018,02,04,01,07,9.40
2018,02,04,01,08,9.40
2018,02,04,01,09,9.50
2018,02,04,01,10,9.50
2018,02,04,01,11,9.50
2018,02,04,01,12,9.60
2018,02,04,01,13,9.60
2018,02,04,01,14,9.60
2018,02,04,01,15,9.60
2018,02,04,01,16,9.60
2018,02,04,01,17,9.70
2018,02,04,01,18,9.60
2018,02,04,01,19,9.70
2018,02,04,01,20,9.70
2018,02,04,01,21,9.70
2018,02,04,01,22,9.70
2018,02,04,01,23,9.70
2018,02,04,01,24,9.70
2018,02,04,01,25,9.70
2018,02,04,01,26,9.70
2018,02,04,01,27,9.70
2018,02,04,01,28,9.60
2018,02,04,01,29,9.60
2018,02,04,01,30,9.60
2018,02,04,01,31,9.50
2018,02,04,01,32,9.50
2018,02,04,01,33,9.40
2018,02,04,01,34,9.40
2018,02,04,01,35,9.40
2018,02,04,01,36,9.30
2018,02,04,01,37,9.30
2018,02,04,01,38,9.30
2018,02,04,01,39,9.30
2018,02,04,01,40,9.30
2018,02,04,01,41,9.20
2018,02,04,01,42,9.20
2018,02,04,01,43,9.20
2018,02,04,01,44,9.20
2018,02,04,01,45,9.20
2018,02,04,01,46,9.20
2018,02,04,01,47,9.30
2018,02,04,01,48,9.30
2018,02,04,01,49,9.30
2018,02,04,01,50,9.30
2018,02,04,01,51,9.30
2018,02,04,01,52,9.30
2018,02,04,01,53,9.30
2018,02,04,01,54,9.30
2018,02,04,01,55,9.30
2018,02,04,01,56,9.40
2018,02,04,01,57,9.40
2018,02,04,01,58,9.40
2018,02,04,01,59,9.40
2018,02,04,02,00,9.40
2018,02,04,02,01,9.40
2018,02,04,02,02,9.40
2018,02,04,02,03,9.30
2018,02,04,02,04,9.30
2018,02,04,02,05,9.30
2018,02,04,02,06,9.30
2018,02,04,02,07,9.30
2018,02,04,02,08,9.30
2018,02,04,02,09,9.20
2018,02,04,02,10,9.20
2018,02,04,02,11,9.30
2018,02,04,02,12,9.30
2018,02,04,02,13,9.30
2018,02,04,02,14,9.30
2018,02,04,02,15,9.30
2018,02,04,02,16,9.30
2018,02,04,02,17,9.30
2018,02,04,02,18,9.30
2018,02,04,02,19,9.30
2018,02,04,02,20,9.30
2018,02,04,02,21,9.30
2018,02,04,02,22,9.30
2018,02,04,02,23,9.40
2018,02,04,02,24,9.40
2018,02,04,02,25,9.40
2018,02,04,02,26,9.40
2018,02,04,02,27,9.40
2018,02,04,02,28,9.40
2018,02,04,02,29,9.40
2018,02,04,02,30,9.50
2018,02,04,02,31,9.50
2018,02,04,02,32,9.50
2018,02,04,02,33,9.40
2018,02,04,02,34,9.40
2018,02,04,02,35,9.40
2018,02,04,02,36,9.40
2018,02,04,02,37,9.40
2018,02,04,02,38,9.40
2018,02,04,02,39,9.40
2018,02,04,02,40,9.40
2018,02,04,02,41,9.40
2018,02,04,02,42,9.40
2018,02,04,02,43,9.40
2018,02,04,02,44,9.50
2018,02,04,02,45,9.50
2018,02,04,02,46,9.50
2018,02,04,02,47,9.60
2018,02,04,02,48,9.60
2018,02,04,02,49,9.60
2018,02,04,02,50,9.70
2018,02,04,02,51,9.70
2018,02,04,02,52,9.80
2018,02,04,02,53,9.80
2018,02,04,02,54,9.80
2018,02,04,02,55,9.90
2018,02,04,02,56,10.00
2018,02,04,02,57,10.00
2018,02,04,02,58,10.10
2018,02,04,02,59,10.10
2018,02,04,03,00,10.10
2018,02,04,03,01,10.20
2018,02,04,03,02,10.20
2018,02,04,03,03,10.20
2018,02,04,03,04,10.30
2018,02,04,03,05,10.30
2018,02,04,03,06,10.30
2018,02,04,03,07,10.30
2018,02,04,03,08,10.30
2018,02,04,03,09,10.40
2018,02,04,03,10,10.40
2018,02,04,03,11,10.40
2018,02,04,03,12,10.40
2018,02,04,03,13,10.40
2018,02,04,03,14,10.40
2018,02,04,03,15,10.40
2018,02,04,03,16,10.50
2018,02,04,03,17,10.50
2018,02,04,03,18,10.50
2018,02,04,03,19,10.50
2018,02,04,03,20,10.50
2018,02,04,03,21,10.50
2018,02,04,03,22,10.50
2018,02,04,03,23,10.50
2018,02,04,03,24,10.50
2018,02,04,03,25,10.50
2018,02,04,03,26,10.60
2018,02,04,03,27,10.60
2018,02,04,03,28,10.60
2018,02,04,03,29,10.60
2018,02,04,03,30,10.60
2018,02,04,03,31,10.60
2018,02,04,03,32,10.60
2018,02,04,03,33,10.60
2018,02,04,03,34,10.60
2018,02,04,03,35,10.60
2018,02,04,03,36,10.60
2018,02,04,03,37,10.60
2018,02,04,03,38,10.70
2018,02,04,03,39,10.60
2018,02,04,03,40,10.70
2018,02,04,03,41,10.60
2018,02,04,03,42,10.60
2018,02,04,03,43,10.60
2018,02,04,03,44,10.60
2018,02,04,03,45,10.60
2018,02,04,03,46,10.60
2018,02,04,03,47,10.60
2018,02,04,03,48,10.60
2018,02,04,03,49,10.60
2018,02,04,03,50,10.60
2018,02,04,03,51,10.60
2018,02,04,03,52,10.60
2018,02,04,03,53,10.60
2018,02,04,03,54,10.60
2018,02,04,03,55,10.60
2018,02,04,03,56,10.60
2018,02,04,03,57,10.60
2018,02,04,03,58,10.60
2018,02,04,03,59,10.60
2018,02,04,04,00,10.60
2018,02,04,04,01,10.60
2018,02,04,04,02,10.60
2018,02,04,04,03,10.60
2018,02,04,04,04,10.60
2018,02,04,04,05,10.60
2018,02,04,04,06,10.60
2018,02,04,04,07,10.60
2018,02,04,04,08,10.70
2018,02,04,04,09,10.70
2018,02,04,04,10,10.70
2018,02,04,04,11,10.70
2018,02,04,04,12,10.70
2018,02,04,04,13,10.70
2018,02,04,04,14,10.70
2018,02,04,04,15,10.70
2018,02,04,04,16,10.70
2018,02,04,04,17,10.80
2018,02,04,04,18,10.80
2018,02,04,04,19,10.80
2018,02,04,04,20,10.80
2018,02,04,04,21,10.80
2018,02,04,04,22,10.80
2018,02,04,04,23,10.80
2018,02,04,04,24,10.80
2018,02,04,04,25,10.80
2018,02,04,04,26,10.80
2018,02,04,04,27,10.80
2018,02,04,04,28,10.80
2018,02,04,04,29,10.80
2018,02,04,04,30,10.80
2018,02,04,04,31,10.80
2018,02,04,04,32,10.80
2018,02,04,04,33,10.80
2018,02,04,04,34,10.80
2018,02,04,04,35,10.80
2018,02,04,04,36,10.80
2018,02,04,04,37,10.80
2018,02,04,04,38,10.80
2018,02,04,04,39,10.80
2018,02,04,04,40,10.80
2018,02,04,04,41,10.80
2018,02,04,04,42,10.80
2018,02,04,04,43,10.80
2018,02,04,04,44,10.80
2018,02,04,04,45,10.90
2018,02,04,04,46,10.90
2018,02,04,04,47,10.90
2018,02,04,04,48,10.90
2018,02,04,04,49,10.90
2018,02,04,04,50,10.90
2018,02,04,04,51,10.90
2018,02,04,04,52,10.90
2018,02,04,04,53,10.90
2018,02,04,04,54,10.90
2018,02,04,04,55,10.90
2018,02,04,04,56,10.90
2018,02,04,04,57,10.90
2018,02,04,04,58,10.90
2018,02,04,04,59,10.90
2018,02,04,05,00,10.90
2018,02,04,05,01,10.90
2018,02,04,05,02,10.90
2018,02,04,05,03,10.90
2018,02,04,05,04,10.90
2018,02,04,05,05,10.90
2018,02,04,05,06,10.90
2018,02,04,05,07,10.90
2018,02,04,05,08,10.90
2018,02,04,05,09,10.90
2018,02,04,05,10,10.90
2018,02,04,05,11,10.90
2018,02,04,05,12,10.90
2018,02,04,05,13,10.90
2018,02,04,05,14,10.80
2018,02,04,05,15,10.80
2018,02,04,05,16,10.80
2018,02,04,05,17,10.80
2018,02,04,05,18,10.80
2018,02,04,05,19,10.80
2018,02,04,05,20,10.80
2018,02,04,05,21,10.80
2018,02,04,05,22,10.80
2018,02,04,05,23,10.80
2018,02,04,05,24,10.80
2018,02,04,05,25,10.80
2018,02,04,05,26,10.80
2018,02,04,05,27,10.80
2018,02,04,05,28,10.80
2018,02,04,05,29,10.80
2018,02,04,05,30,10.80
2018,02,04,05,31,10.80
2018,02,04,05,32,10.80
2018,02,04,05,33,10.80
2018,02,04,05,34,10.80
2018,02,04,05,35,10.80
2018,02,04,05,36,10.80
2018,02,04,05,37,10.80
2018,02,04,05,38,10.80
2018,02,04,05,39,10.80
2018,02,04,05,40,10.80
2018,02,04,05,41,10.80
2018,02,04,05,42,10.80
2018,02,04,05,43,10.80
2018,02,04,05,44,10.80
2018,02,04,05,45,10.80
2018,02,04,05,46,10.90
2018,02,04,05,47,10.90
2018,02,04,05,48,10.90
2018,02,04,05,49,10.90
2018,02,04,05,50,10.90
2018,02,04,05,51,10.90
2018,02,04,05,52,10.90
2018,02,04,05,53,10.90
2018,02,04,05,54,10.90
2018,02,04,05,55,10.90
2018,02,04,05,56,10.90
2018,02,04,05,57,10.90
2018,02,04,05,58,10.90
2018,02,04,05,59,10.90
2018,02,04,06,00,10.90
2018,02,04,06,01,10.90
2018,02,04,06,02,10.90
2018,02,04,06,03,10.90
2018,02,04,06,04,10.90
2018,02,04,06,05,10.90
2018,02,04,06,06,10.90
2018,02,04,08,55,10.80
2018,02,04,08,56,10.80
2018,02,04,08,57,10.80
2018,02,04,08,58,10.80
2018,02,04,08,59,10.70
2018,02,04,09,00,10.80
2018,02,04,09,01,10.80
2018,02,04,09,02,10.70
2018,02,04,09,03,10.70
2018,02,04,09,04,10.70
2018,02,04,09,05,10.80
2018,02,04,09,06,10.70
2018,02,04,09,07,10.80
2018,02,04,09,08,10.80
2018,02,04,09,09,10.80
2018,02,04,09,10,10.80
2018,02,04,09,11,10.80
2018,02,04,09,12,10.80
2018,02,04,09,13,10.80
2018,02,04,09,14,10.80
2018,02,04,09,15,10.80
2018,02,04,09,16,10.80
2018,02,04,09,17,10.80
2018,02,04,09,18,10.90
2018,02,04,09,19,10.90
2018,02,04,09,20,10.90
2018,02,04,09,21,10.90
2018,02,04,09,22,10.90
2018,02,04,09,23,10.90
2018,02,04,09,24,10.90
2018,02,04,09,25,10.90
2018,02,04,09,26,10.90
2018,02,04,09,27,10.90
2018,02,04,09,28,10.90
2018,02,04,09,29,10.90
2018,02,04,09,30,11.00
2018,02,04,09,31,10.90
2018,02,04,09,32,11.00
2018,02,04,09,33,11.00
2018,02,04,09,34,11.00
2018,02,04,09,35,11.00
2018,02,04,09,36,11.10
2018,02,04,09,37,11.10
2018,02,04,09,38,11.10
2018,02,04,09,39,11.10
2018,02,04,09,40,11.10
2018,02,04,09,41,11.10
2018,02,04,09,42,11.10
2018,02,04,09,43,11.10
2018,02,04,09,44,11.10
2018,02,04,09,45,11.10
2018,02,04,09,46,11.20
2018,02,04,09,47,11.20
2018,02,04,09,48,11.20
2018,02,04,09,49,11.20
2018,02,04,09,50,11.20
2018,02,04,09,51,11.20
2018,02,04,09,52,11.30
2018,02,04,09,53,11.20
2018,02,04,09,54,11.20
2018,02,04,09,55,11.30
2018,02,04,09,56,11.30
2018,02,04,09,57,11.20
2018,02,04,09,58,11.20
2018,02,04,09,59,11.20
2018,02,04,10,00,11.20
2018,02,04,10,01,11.20
2018,02,04,10,02,11.20
2018,02,04,10,03,11.20
2018,02,04,10,04,11.20
2018,02,04,10,05,11.20
2018,02,04,10,06,11.20
2018,02,04,10,07,11.20
2018,02,04,10,08,11.20
2018,02,04,10,09,11.20
2018,02,04,10,10,11.20
2018,02,04,10,11,11.20
2018,02,04,10,12,11.20
2018,02,04,10,13,11.20
2018,02,04,10,14,11.20
2018,02,04,10,15,11.20
2018,02,04,10,16,11.30
2018,02,04,10,17,11.30
2018,02,04,10,18,11.30
2018,02,04,10,19,11.30
2018,02,04,10,20,11.30
2018,02,04,10,21,11.30
2018,02,04,10,22,11.20
2018,02,04,10,23,11.20
2018,02,04,10,24,11.20
2018,02,04,10,25,11.20
2018,02,04,10,26,11.20
2018,02,04,10,27,11.10
2018,02,04,10,28,11.10
2018,02,04,10,29,11.10
2018,02,04,10,30,11.00
2018,02,04,10,31,11.00
2018,02,04,10,32,10.90
2018,02,04,10,33,10.90
2018,02,04,10,34,10.90
2018,02,04,10,35,10.90
2018,02,04,10,36,10.80
2018,02,04,10,37,10.80
2018,02,04,10,38,10.80
2018,02,04,10,39,10.70
2018,02,04,10,40,10.70
2018,02,04,10,41,10.70
2018,02,04,10,42,10.70
2018,02,04,10,43,10.70
2018,02,04,10,44,10.70
2018,02,04,10,45,10.70
2018,02,04,10,46,10.70
2018,02,04,10,47,10.70
2018,02,04,10,48,10.70
2018,02,04,10,49,10.70
2018,02,04,10,50,10.70
2018,02,04,10,51,10.80
2018,02,04,10,52,10.80
2018,02,04,10,53,10.80
2018,02,04,10,54,10.80
2018,02,04,10,55,10.80
2018,02,04,10,56,10.80
2018,02,04,10,57,10.80
2018,02,04,10,58,10.80
2018,02,04,10,59,10.80
2018,02,04,11,00,10.80
2018,02,04,11,01,10.80
2018,02,04,11,02,10.80
2018,02,04,11,03,10.80
2018,02,04,11,04,10.80
2018,02,04,11,05,10.90
2018,02,04,11,06,10.90
2018,02,04,11,07,10.90
2018,02,04,11,08,10.90
2018,02,04,11,09,10.90
2018,02,04,11,10,11.00
2018,02,04,11,11,11.00
2018,02,04,11,12,11.00
2018,02,04,11,13,11.00
2018,02,04,11,14,11.10
2018,02,04,11,15,11.10
2018,02,04,11,16,11.10
2018,02,04,11,17,11.10
2018,02,04,11,18,11.20
2018,02,04,11,19,11.20
2018,02,04,11,20,11.20
2018,02,04,11,21,11.20
2018,02,04,11,22,11.30
2018,02,04,11,23,11.30
2018,02,04,11,24,11.30
2018,02,04,11,25,11.40
2018,02,04,11,26,11.40
2018,02,04,11,27,11.40
2018,02,04,11,28,11.40
2018,02,04,11,29,11.40
2018,02,04,11,30,11.40
2018,02,04,11,31,11.40
2018,02,04,11,32,11.50
2018,02,04,11,33,11.50
2018,02,04,11,34,11.50
2018,02,04,11,35,11.50
2018,02,04,11,36,11.60
2018,02,04,11,37,11.60
2018,02,04,11,38,11.60
2018,02,04,11,39,11.60
2018,02,04,11,40,11.60
2018,02,04,11,41,11.60
2018,02,04,11,42,11.60
2018,02,04,11,43,11.70
2018,02,04,11,44,11.70
2018,02,04,11,45,11.70
2018,02,04,11,46,11.70
2018,02,04,11,47,11.70
2018,02,04,11,48,11.80
2018,02,04,11,49,11.80
2018,02,04,11,50,11.80
2018,02,04,11,51,11.80
2018,02,04,11,52,11.70
2018,02,04,11,53,11.70
2018,02,04,11,54,11.70
2018,02,04,11,55,11.70
2018,02,04,11,56,11.70
2018,02,04,11,57,11.70
2018,02,04,11,58,11.80
2018,02,04,11,59,11.80
2018,02,04,12,00,11.90
2018,02,04,12,01,11.90
2018,02,04,12,02,12.00
2018,02,04,12,03,12.10
2018,02,04,12,04,12.10
2018,02,04,12,05,12.20
2018,02,04,12,06,12.20
2018,02,04,12,07,12.20
2018,02,04,12,08,12.20
2018,02,04,12,09,12.20
2018,02,04,12,10,12.10
2018,02,04,12,11,12.10
2018,02,04,12,12,12.10
2018,02,04,12,13,12.00
2018,02,04,12,14,12.00
2018,02,04,12,15,11.90
2018,02,04,12,16,11.90
2018,02,04,12,17,11.90
2018,02,04,12,18,11.90
2018,02,04,12,19,11.90
2018,02,04,12,20,11.90
2018,02,04,12,21,11.90
2018,02,04,12,22,11.80
2018,02,04,12,23,11.80
2018,02,04,12,24,11.80
2018,02,04,12,25,11.70
2018,02,04,12,26,11.70
2018,02,04,12,27,11.70
2018,02,04,12,28,11.70
2018,02,04,12,29,11.70
2018,02,04,12,30,11.70
2018,02,04,12,31,11.70
2018,02,04,12,32,11.60
2018,02,04,12,33,11.60
2018,02,04,12,34,11.60
2018,02,04,12,35,11.60
2018,02,04,12,36,11.70
2018,02,04,12,37,11.70
2018,02,04,12,38,11.70
2018,02,04,12,39,11.70
2018,02,04,12,40,11.70
2018,02,04,12,41,11.70
2018,02,04,12,42,11.70
2018,02,04,12,43,11.70
2018,02,04,12,44,11.70
2018,02,04,12,45,11.70
2018,02,04,12,46,11.70
2018,02,04,12,47,11.60
2018,02,04,12,48,11.60
2018,02,04,12,49,11.60
2018,02,04,12,50,11.50
2018,02,04,12,51,11.50
2018,02,04,12,52,11.50
2018,02,04,12,53,11.50
2018,02,04,12,54,11.50
2018,02,04,12,55,11.50
2018,02,04,12,56,11.50
2018,02,04,12,57,11.50
2018,02,04,12,58,11.50
2018,02,04,12,59,11.50
2018,02,04,13,00,11.60
2018,02,04,13,01,11.60
2018,02,04,13,02,11.60
2018,02,04,13,03,11.60
2018,02,04,13,04,11.60
2018,02,04,13,05,11.60
2018,02,04,13,06,11.60
2018,02,04,13,07,11.60
2018,02,04,13,08,11.60
2018,02,04,13,09,11.60
2018,02,04,13,10,11.60
2018,02,04,13,11,11.60
2018,02,04,13,12,11.60
2018,02,04,13,13,11.60
2018,02,04,13,14,11.60
2018,02,04,13,15,11.60
2018,02,04,13,16,11.60
2018,02,04,13,17,11.60
2018,02,04,13,18,11.60
2018,02,04,13,19,11.60
2018,02,04,13,20,11.60
2018,02,04,13,21,11.50
2018,02,04,13,22,11.50
2018,02,04,13,23,11.50
2018,02,04,13,24,11.50
2018,02,04,13,25,11.60
2018,02,04,13,26,11.60
2018,02,04,13,27,11.60
2018,02,04,13,28,11.60
2018,02,04,13,29,11.60
2018,02,04,13,30,11.60
2018,02,04,13,31,11.60
2018,02,04,13,32,11.60
2018,02,04,13,33,11.60
2018,02,04,13,34,11.60
2018,02,04,13,35,11.50
2018,02,04,13,36,11.50
2018,02,04,13,37,11.50
2018,02,04,13,38,11.40
2018,02,04,13,39,11.40
2018,02,04,13,40,11.40
2018,02,04,13,41,11.40
2018,02,04,13,42,11.40
2018,02,04,13,43,11.40
2018,02,04,13,44,11.40
2018,02,04,13,45,11.40
2018,02,04,13,46,11.40
2018,02,04,13,47,11.40
2018,02,04,13,48,11.30
2018,02,04,13,49,11.30
2018,02,04,13,50,11.30
2018,02,04,13,51,11.30
2018,02,04,13,52,11.30
2018,02,04,13,53,11.30
2018,02,04,13,54,11.30
2018,02,04,13,55,11.30
2018,02,04,13,56,11.30
2018,02,04,13,57,11.30
2018,02,04,13,58,11.30
2018,02,04,13,59,11.30
2018,02,04,14,00,11.30
2018,02,04,14,01,11.30
2018,02,04,14,02,11.30
2018,02,04,14,03,11.30
2018,02,04,14,04,11.30
2018,02,04,14,05,11.30
2018,02,04,14,06,11.30
2018,02,04,14,07,11.30
2018,02,04,14,08,11.30
2018,02,04,14,09,11.30
2018,02,04,14,10,11.30
2018,02,04,14,11,11.30
2018,02,04,14,12,11.20
2018,02,04,14,13,11.20
2018,02,04,14,14,11.20
2018,02,04,14,15,11.10
2018,02,04,14,16,11.10
2018,02,04,14,17,11.10
2018,02,04,14,18,11.10
2018,02,04,14,19,11.10
2018,02,04,14,20,11.10
2018,02,04,14,21,11.10
2018,02,04,14,22,11.10
2018,02,04,14,23,11.10
2018,02,04,14,24,11.10
2018,02,04,14,25,11.10
2018,02,04,14,26,11.10
2018,02,04,14,27,11.10
2018,02,04,14,28,11.10
2018,02,04,14,29,11.20
2018,02,04,14,30,11.20
2018,02,04,14,31,11.20
2018,02,04,14,32,11.20
2018,02,04,14,33,11.20
2018,02,04,14,34,11.20
2018,02,04,14,35,11.20
2018,02,04,14,36,11.20
2018,02,04,14,37,11.20
2018,02,04,14,38,11.20
2018,02,04,14,39,11.20
2018,02,04,14,40,11.20
2018,02,04,14,41,11.20
2018,02,04,14,42,11.20
2018,02,04,14,43,11.20
2018,02,04,14,44,11.20
2018,02,04,14,45,11.10
2018,02,04,14,46,11.10
2018,02,04,14,47,11.10
2018,02,04,14,48,11.10
2018,02,04,14,49,11.10
2018,02,04,14,50,11.10
2018,02,04,14,51,11.10
2018,02,04,14,52,11.10
2018,02,04,14,53,11.10
2018,02,04,14,54,11.10
2018,02,04,14,55,11.10
2018,02,04,14,56,11.00
2018,02,04,14,57,11.00
2018,02,04,14,58,11.00
2018,02,04,14,59,10.90
2018,02,04,15,00,10.90
2018,02,04,15,01,10.90
2018,02,04,15,02,10.90
2018,02,04,15,03,10.90
2018,02,04,15,04,10.90
2018,02,04,15,05,10.90
2018,02,04,15,06,10.90
2018,02,04,15,07,11.00
2018,02,04,15,08,11.00
2018,02,04,15,09,11.00
2018,02,04,15,10,11.00
2018,02,04,15,11,11.00
2018,02,04,15,12,11.10
2018,02,04,15,13,11.10
2018,02,04,15,14,11.10
2018,02,04,15,15,11.10
2018,02,04,15,16,11.20
2018,02,04,15,17,11.20
2018,02,04,15,18,11.20
2018,02,04,15,19,11.20
2018,02,04,15,20,11.20
2018,02,04,15,21,11.20
2018,02,04,15,22,11.20
2018,02,04,15,23,11.20
2018,02,04,15,24,11.10
2018,02,04,15,25,11.10
2018,02,04,15,26,11.10
2018,02,04,15,27,11.10
2018,02,04,15,28,11.10
2018,02,04,15,29,11.10
2018,02,04,15,30,11.10
2018,02,04,15,31,11.10
2018,02,04,15,32,11.10
2018,02,04,15,33,11.10
2018,02,04,15,34,11.10
2018,02,04,15,35,11.10
2018,02,04,15,36,11.10
2018,02,04,15,37,11.10
2018,02,04,15,38,11.10
2018,02,04,15,39,11.10
2018,02,04,15,40,11.20
2018,02,04,15,41,11.20
2018,02,04,15,42,11.20
2018,02,04,15,43,11.20
2018,02,04,15,44,11.20
2018,02,04,15,45,11.10
2018,02,04,15,46,11.10
2018,02,04,15,47,11.10
2018,02,04,15,48,11.10
2018,02,04,15,49,11.10
2018,02,04,15,50,11.10
2018,02,04,15,51,11.10
2018,02,04,15,52,11.10
2018,02,04,15,53,11.10
2018,02,04,15,54,11.10
2018,02,04,15,55,11.00
2018,02,04,15,56,11.00
2018,02,04,15,57,11.00
2018,02,04,15,58,11.00
2018,02,04,15,59,10.90
2018,02,04,16,00,10.90
2018,02,04,16,01,10.90
2018,02,04,16,02,10.90
2018,02,04,16,03,10.90
2018,02,04,16,04,10.90
2018,02,04,16,05,10.90
2018,02,04,16,06,10.90
2018,02,04,16,07,10.90
2018,02,04,16,08,10.90
2018,02,04,16,09,10.90
2018,02,04,16,10,10.80
2018,02,04,16,11,10.80
2018,02,04,16,12,10.80
2018,02,04,16,13,10.80
2018,02,04,16,14,10.80
2018,02,04,16,15,10.90
2018,02,04,16,16,10.90
2018,02,04,16,17,10.90
2018,02,04,16,18,10.90
2018,02,04,16,19,10.90
2018,02,04,16,20,10.90
2018,02,04,16,21,10.90
2018,02,04,16,22,10.90
2018,02,04,16,23,10.90
2018,02,04,16,24,10.90
2018,02,04,16,25,10.90
2018,02,04,16,26,10.90
2018,02,04,16,27,11.00
2018,02,04,16,28,11.00
2018,02,04,16,29,11.00
2018,02,04,16,30,11.00
2018,02,04,16,31,11.00
2018,02,04,16,32,11.00
2018,02,04,16,33,11.00
2018,02,04,16,34,11.00
2018,02,04,16,35,11.00
2018,02,04,16,36,10.90
2018,02,04,16,37,10.90
2018,02,04,16,38,10.90
2018,02,04,16,39,11.00
2018,02,04,16,40,10.90
2018,02,04,16,41,10.90
2018,02,04,16,42,10.90
2018,02,04,16,43,10.90
2018,02,04,16,44,10.90
2018,02,04,16,45,10.90
2018,02,04,16,46,10.80
2018,02,04,16,47,10.80
2018,02,04,16,48,10.80
2018,02,04,16,49,10.80
2018,02,04,16,50,10.80
2018,02,04,16,51,10.70
2018,02,04,16,52,10.70
2018,02,04,16,53,10.70
2018,02,04,16,54,10.70
2018,02,04,16,55,10.70
2018,02,04,16,56,10.60
2018,02,04,16,57,10.60
2018,02,04,16,58,10.60
2018,02,04,16,59,10.60
2018,02,04,17,00,10.60
2018,02,04,17,01,10.60
2018,02,04,17,02,10.60
2018,02,04,17,03,10.60
2018,02,04,17,04,10.60
2018,02,04,17,05,10.60
2018,02,04,17,06,10.60
2018,02,04,17,07,10.60
2018,02,04,17,08,10.50
2018,02,04,17,09,10.50
2018,02,04,17,10,10.50
2018,02,04,17,11,10.60
2018,02,04,17,12,10.50
2018,02,04,17,13,10.50
2018,02,04,17,14,10.50
2018,02,04,17,15,10.50
2018,02,04,17,16,10.50
2018,02,04,17,17,10.50
2018,02,04,17,18,10.50
2018,02,04,17,19,10.50
2018,02,04,17,20,10.50
2018,02,04,17,21,10.50
2018,02,04,17,22,10.40
2018,02,04,17,23,10.40
2018,02,04,17,24,10.40
2018,02,04,17,25,10.40
2018,02,04,17,26,10.40
2018,02,04,17,27,10.40
2018,02,04,17,28,10.40
2018,02,04,17,29,10.40
2018,02,04,17,30,10.40
2018,02,04,17,31,10.40
2018,02,04,17,32,10.40
2018,02,04,17,33,10.40
2018,02,04,17,34,10.40
2018,02,04,17,35,10.40
2018,02,04,17,36,10.40
2018,02,04,17,37,10.40
2018,02,04,17,38,10.40
2018,02,04,17,39,10.40
2018,02,04,17,40,10.40
2018,02,04,17,41,10.40
2018,02,04,17,42,10.40
2018,02,04,17,43,10.40
2018,02,04,17,44,10.30
2018,02,04,17,45,10.30
2018,02,04,17,46,10.30
2018,02,04,17,47,10.30
2018,02,04,17,48,10.30
2018,02,04,17,49,10.30
2018,02,04,17,50,10.20
2018,02,04,17,51,10.20
2018,02,04,17,52,10.20
2018,02,04,17,53,10.20
2018,02,04,17,54,10.20
2018,02,04,17,55,10.20
2018,02,04,17,56,10.10
2018,02,04,17,57,10.10
2018,02,04,17,58,10.10
2018,02,04,17,59,10.10
2018,02,04,18,00,10.10
2018,02,04,18,01,10.10
2018,02,04,18,02,10.10
2018,02,04,18,03,10.10
2018,02,04,18,04,10.10
2018,02,04,18,05,10.10
2018,02,04,18,06,10.10
2018,02,04,18,07,10.00
2018,02,04,18,08,10.00
2018,02,04,18,09,10.00
2018,02,04,18,10,9.90
2018,02,04,18,11,9.90
2018,02,04,18,12,9.90
2018,02,04,18,13,9.90
2018,02,04,18,14,9.90
2018,02,04,18,15,9.90
2018,02,04,18,16,9.80
2018,02,04,18,17,9.80
2018,02,04,18,18,9.80
2018,02,04,18,19,9.80
2018,02,04,18,20,9.80
2018,02,04,18,21,9.80
2018,02,04,18,22,9.70
2018,02,04,18,23,9.70
2018,02,04,18,24,9.70
2018,02,04,18,25,9.70
2018,02,04,18,26,9.70
2018,02,04,18,27,9.70
2018,02,04,18,28,9.60
2018,02,04,18,29,9.60
2018,02,04,18,30,9.60
2018,02,04,18,31,9.60
2018,02,04,18,32,9.60
2018,02,04,18,33,9.60
2018,02,04,18,34,9.50
2018,02,04,18,35,9.50
2018,02,04,18,36,9.50
2018,02,04,18,37,9.50
2018,02,04,18,38,9.50
2018,02,04,18,39,9.50
2018,02,04,18,40,9.50
2018,02,04,18,41,9.50
2018,02,04,18,42,9.50
2018,02,04,18,43,9.50
2018,02,04,18,44,9.50
2018,02,04,18,45,9.50
2018,02,04,18,46,9.40
2018,02,04,18,47,9.40
2018,02,04,18,48,9.40
2018,02,04,18,49,9.40
2018,02,04,18,50,9.40
2018,02,04,18,51,9.40
2018,02,04,18,52,9.30
2018,02,04,18,53,9.30
2018,02,04,18,54,9.30
2018,02,04,18,55,9.30
2018,02,04,18,56,9.30
2018,02,04,18,57,9.30
2018,02,04,18,58,9.20
2018,02,04,18,59,9.20
2018,02,04,19,00,9.20
2018,02,04,19,01,9.20
2018,02,04,19,02,9.20
2018,02,04,19,03,9.20
2018,02,04,19,04,9.20
2018,02,04,19,05,9.10
2018,02,04,19,06,9.10
2018,02,04,19,07,9.10
2018,02,04,19,08,9.10
2018,02,04,19,09,9.10
2018,02,04,19,10,9.10
2018,02,04,19,11,9.10
2018,02,04,19,12,9.10
2018,02,04,19,13,9.00
2018,02,04,19,14,9.00
2018,02,04,19,15,9.00
2018,02,04,19,16,9.00
2018,02,04,19,17,9.00
2018,02,04,19,18,9.00
2018,02,04,19,19,9.00
2018,02,04,19,20,9.10
2018,02,04,19,21,9.10
2018,02,04,19,22,9.10
2018,02,04,19,23,9.10
2018,02,04,19,24,9.10
2018,02,04,19,25,9.00
2018,02,04,19,26,9.00
2018,02,04,19,27,9.00
2018,02,04,19,28,9.00
2018,02,04,19,29,9.00
2018,02,04,19,30,9.00
2018,02,04,19,31,9.00
2018,02,04,19,32,9.00
2018,02,04,19,33,9.00
2018,02,04,19,34,8.90
2018,02,04,19,35,8.90
2018,02,04,19,36,8.90
2018,02,04,19,37,8.90
2018,02,04,19,38,8.90
2018,02,04,19,39,8.90
2018,02,04,19,40,8.90
2018,02,04,19,41,8.80
2018,02,04,19,42,8.80
2018,02,04,19,43,8.80
2018,02,04,19,44,8.80
2018,02,04,19,45,8.80
2018,02,04,19,46,8.80
2018,02,04,19,47,8.80
2018,02,04,19,48,8.80
2018,02,04,19,49,8.90
2018,02,04,19,50,8.90
2018,02,04,19,51,8.90
2018,02,04,19,52,8.90
2018,02,04,19,53,8.90
2018,02,04,19,54,8.90
2018,02,04,19,55,8.90
2018,02,04,19,56,8.90
2018,02,04,19,57,8.90
2018,02,04,19,58,8.90
2018,02,04,19,59,8.90
2018,02,04,20,00,8.90
2018,02,04,20,01,8.80
2018,02,04,20,02,8.80
2018,02,04,20,03,8.80
2018,02,04,20,04,8.80
2018,02,04,20,05,8.80
2018,02,04,20,06,8.80
2018,02,04,20,07,8.80
2018,02,04,20,08,8.80
2018,02,04,20,09,8.80
2018,02,04,20,10,8.70
2018,02,04,20,11,8.70
2018,02,04,20,12,8.70
2018,02,04,20,13,8.70
2018,02,04,20,14,8.70
2018,02,04,20,15,8.70
2018,02,04,20,16,8.70
2018,02,04,20,17,8.70
2018,02,04,20,18,8.70
2018,02,04,20,19,8.70
2018,02,04,20,20,8.70